Flag for United Kingdom Weather past 2 weeks in Rotherham, England, United Kingdom

Now
76 °F

Mild.


Feels Like: 78 °F
Forecast: 60 / 71 °F
Wind: 9 mph from Southwest

Location: Nottingham Weather Centre

Current Time: Jul 2, 2015 at 12:59:43 AM

Latest Report: Jul 2, 2015 at 12:00 AM


Visibility: 22 mi

Pressure: 29.85 "Hg

Humidity: 70%

Dew point: 66 °F

Location of RotherhamLocation

Historic Weather in Rotherham — Graph

°F

Rotherham temperature yesterday

Maximum temperature yesterday: 92 °F (at 3:00 PM)
Minimum temperature yesterday: 59 °F (at 5:00 AM)
Average temperature yesterday: 76 °F

Past Weeks' High & Low Weather Summary

 TemperatureHumidityPressure
High92 °F (Jul 1, 3:00 PM)98% (Jun 20, 10:00 AM)30.25 "Hg (Jun 20, 10:00 AM)
Low49 °F (Jun 18, 6:00 AM)34% (Jun 30, 7:00 PM)29.78 "Hg (Jun 22, 3:00 PM)
Average61 °F72%30.06 "Hg
* Reported Jun 16 11:00 PM — Jul 1 11:00 PM, Rotherham, Weather by CustomWeather, © 2015

Note: Actual official high and low records may vary slightly from our data, if they occured in-between our weather recording intervals... More about our weather records

Advertising

Rotherham weather history for previous 24 hours

 ConditionsComfort  
Time TempWeatherWind HumidityBarometerVisibility
11:00 PM
Wed, Jul 1
79 °FWarm.9 mph63%29.83 "Hg10 mi
9:00 PM84 °FWarm.8 mph53%29.81 "Hg31 mi
8:00 PM87 °FWarm.6 mph42%29.80 "Hg13 mi
7:00 PM88 °FHot.5 mph40%29.80 "Hg14 mi
6:00 PM90 °FSmoke.8 mph38%29.80 "Hg31 mi
5:00 PM90 °FHot.8 mph41%29.80 "Hg16 mi
4:00 PM91 °FHot.12 mph37%29.81 "Hg14 mi
3:00 PM92 °FHot.8 mph40%29.81 "Hg31 mi
2:00 PM85 °FWarm.8 mph55%29.84 "Hg8 mi
1:00 PM89 °FHot.13 mph39%29.85 "Hg13 mi
12:00 PM86 °FWarm.10 mph44%29.86 "Hg28 mi
11:00 AM81 °FWarm.10 mph49%29.87 "Hg9 mi
10:00 AM77 °FWarm.9 mph54%29.89 "Hg15 mi
9:00 AM73 °FMild.8 mph60%29.89 "Hg6 mi
8:00 AM67 °FMild.8 mph70%29.91 "Hg7 mi
7:00 AM62 °FCool.8 mph79%29.92 "Hg10 mi
6:00 AM59 °FCool.8 mph83%29.94 "Hg8 mi
5:00 AM59 °FCool.9 mph84%29.96 "Hg12 mi
4:00 AM59 °FCool.8 mph82%29.96 "Hg11 mi
3:00 AM61 °FCool.7 mph77%29.98 "Hg15 mi
2:00 AM63 °FMild.8 mph73%29.98 "Hg11 mi
1:00 AM64 °FMild.7 mph73%30.00 "Hg31 mi
12:00 AM66 °FMild.9 mph69%30.01 "Hg25 mi
Weather by CustomWeather, © 2015

See weather overviewHow to use our weather pages